Weather History for New Philadelphia, OH

Change the Weather History Date:

Sunday, February 24, 2013

  Actual Average Record
Temperature  
Mean Temperature 31 °F 33 °F  
Max Temperature 34 °F 43 °F 66 °F (1985)
Min Temperature 27 °F 23 °F -3 °F (1964)
Degree Days  
Heating Degree Days 34 32  
Month to date heating degree days 867 811  
Since 1 July heating degree days 4012 4083  
Cooling Degree Days 0 0  
Month to date cooling degree days 0 0  
Year to date cooling degree days 0 0  
Moisture  
Dew Point 21 °F    
Average Humidity 68    
Maximum Humidity 85    
Minimum Humidity 51    
Precipitation  
Precipitation T in 0.09 in 1.91 in (1975)
Month to date precipitation 0.67 2.00  
Year to date precipitation 2.17 4.60  
Sea Level Pressure  
Sea Level Pressure 30.06 in    
Wind  
Wind Speed 4 mph (WNW)    
Max Wind Speed 13 mph    
Max Gust Speed 18 mph    
Visibility 9 miles    
Events Snow    
T = Trace of Precipitation, MM = Missing Value Source: NWS Daily Summary

Daily Weather History Graph

Daily Weather History Graph

Search for Another Location

Airport:

Trip Planner

Search our weather history database for the weather conditions in past years. The results will help you decide how hot, cold, wet, or windy it might be!

Date:

Astronomy

Feb. 24, 2013 Rise Set
Actual Time 7:06 AM EST 6:11 PM EST
Civil Twilight 6:38 AM EST 6:39 PM EST
Nautical Twilight 6:07 AM EST 7:11 PM EST
Astronomical Twilight 5:35 AM EST 7:42 PM EST
Moon 5:21 PM EST (2/24) 6:03 AM EST (2/24)
Length of Visible Light 12h 00m
Length of Day
11h 05m
Waxing Gibbous, 99% of the Moon is Illuminated
Feb 24
Waxing Gibbous
Feb 25
Full
Mar 4
Last Quarter
Mar 11
New
Mar 19
First Quarter

Hourly Weather History & Observations

Time (EST) Temp. Windchill Dew Point Humidity Pressure Visibility Wind Dir Wind Speed Gust Speed Precip Events Conditions
12:53 AM 28.0 °F - 23.0 °F 81% 29.93 in 7.0 mi Calm Calm - N/A   Clear
1:53 AM 28.0 °F - 24.1 °F 85% 29.94 in 7.0 mi Calm Calm - N/A   Clear
2:53 AM 28.0 °F - 23.0 °F 81% 29.95 in 6.0 mi Calm Calm - N/A   Haze
3:22 AM 28.4 °F - 23.0 °F 80% 29.92 in 6.0 mi Calm Calm - N/A   Haze
3:53 AM 28.0 °F - 24.1 °F 85% 29.95 in 5.0 mi Calm Calm - N/A   Overcast
4:53 AM 28.9 °F - 24.1 °F 82% 29.95 in 6.0 mi Calm Calm - N/A   Haze
5:53 AM 30.0 °F - 24.1 °F 79% 29.96 in 7.0 mi Calm Calm - N/A   Overcast
6:53 AM 30.0 °F 21.7 °F 21.9 °F 72% 29.99 in 10.0 mi WNW 9.2 mph - N/A   Overcast
7:53 AM 30.0 °F 23.2 °F 19.9 °F 66% 30.01 in 10.0 mi WNW 6.9 mph - N/A   Overcast
8:53 AM 28.9 °F 19.8 °F 19.9 °F 69% 30.04 in 10.0 mi West 10.4 mph - N/A   Overcast
9:53 AM 30.0 °F 24.1 °F 19.0 °F 64% 30.05 in 10.0 mi West 5.8 mph - N/A   Overcast
10:53 AM 28.9 °F 20.4 °F 19.9 °F 69% 30.07 in 10.0 mi WNW 9.2 mph - N/A   Overcast
11:53 AM 28.9 °F 21.9 °F 19.9 °F 69% 30.09 in 5.0 mi NW 6.9 mph - 0.00 in Snow Light Snow
12:53 PM 28.9 °F 22.8 °F 19.0 °F 67% 30.09 in 10.0 mi West 5.8 mph - 0.00 in   Overcast
1:53 PM 30.9 °F 23.5 °F 19.9 °F 64% 30.09 in 10.0 mi West 8.1 mph - N/A   Overcast
2:00 PM 30.2 °F 21.3 °F 19.4 °F 64% 30.06 in 10.0 mi West 10.4 mph - N/A   Overcast
2:53 PM 33.1 °F 26.9 °F 19.9 °F 59% 30.09 in 10.0 mi West 6.9 mph - N/A   Overcast
3:53 PM 33.1 °F 26.1 °F 19.0 °F 56% 30.11 in 10.0 mi WNW 8.1 mph - N/A   Overcast
4:53 PM 34.0 °F 27.2 °F 18.0 °F 52% 30.11 in 10.0 mi NW 8.1 mph - N/A   Overcast
5:53 PM 34.0 °F 28.8 °F 19.0 °F 54% 30.14 in 10.0 mi WNW 5.8 mph - N/A   Overcast
6:53 PM 33.1 °F 30.0 °F 19.0 °F 56% 30.15 in 10.0 mi West 3.5 mph - N/A   Overcast
7:53 PM 33.1 °F - 19.9 °F 59% 30.17 in 10.0 mi Calm Calm - N/A   Overcast
8:53 PM 33.1 °F - 19.9 °F 59% 30.17 in 10.0 mi Calm Calm - N/A   Overcast
9:53 PM 32.0 °F - 21.0 °F 64% 30.18 in 10.0 mi Calm Calm - N/A   Overcast
10:53 PM 32.0 °F - 21.0 °F 64% 30.18 in 10.0 mi Calm Calm - N/A   Overcast
11:53 PM 32.0 °F - 21.9 °F 66% 30.18 in 10.0 mi Calm Calm - N/A   Overcast